ATLAS CENTAUR 2 (694 NORAD) Tracking and Keplerian Element Data

This shows tracking and keplerian element data for the satellite.

Feedback or suggestion? Click here.




ElementValue
Catalog694
NameATLAS CENTAUR 2
Epoch Orbit5915
Epoch Day286.84658084
Epoch Year2024
RAAN175.3731
Inclination30.3579
Eccentricity0.0561258
Argument of Perigee250.5614
Mean Anonmoly103.3524
Mean Motion14.08741443
Decay Rate4.252E-05
L11 00694U 63047A 24286.84658084 .00004252 00000+0 51909-3 0 9993
L22 00694 30.3579 175.3731 0561258 250.5614 103.3524 14.08741443 59159



Live tracking and technical data element details for ATLAS CENTAUR 2 (NORAD 694). ATLAS CENTAUR 2 can be tracked NOW for your location showing map with azimuth and elevation plus other details from your city location.







IsCatalogInMostPopularTable: catalog: 694, numindb: 609
Update: records affected: 1



GetName: 694 ATLAS CENTAUR 2

Hit Count: updated at: Thu, 23 Jan 2025 12:43:38 GMT